Regional Weather Roundup
Issued by NWS

Home | Current Version | Previous Version | Graphics & Text | Print | Product List | Glossary On
Versions: 1 2 3 4 5 6 7 8 9 10 11 12 13 14 15 16 17 18 19 20 21 22 23 24 25 26 27 28 29 30 31 32 33 34 35 36 37 38 39 40 41 42 43 44 45 46 47 48 49 50
000
ASUS43 KDMX 261601
RWRIA

WEATHER ROUNDUP FOR IOWA
NATIONAL WEATHER SERVICE DES MOINES IA
1100 AM CDT SAT MAY 26 2018

NOTE: "FAIR" INDICATES FEW OR NO CLOUDS BELOW 12,000 FEET WITH NO
SIGNIFICANT WEATHER AND/OR OBSTRUCTIONS TO VISIBILITY.

* - THESE STATIONS ARE NOT NWS STATIONS...THUS NOT UNDER NWS
QUALITY CONTROL.  THEY ALSO DO NOT REPORT WEATHER SUCH
AS PRECIPITATION OR FOG.

IAZ001>003-012>014-020>022-031>034-043>046-261700-
   NORTHWEST IOWA

CITY           SKY/WX    TMP DP  RH WIND       PRES   REMARKS
CARROLL *      SUNNY     91  55  29 NW8       29.79S HX  89
CHEROKEE *     SUNNY     86  56  34 NW6       29.80S HX  85
DENISON *      SUNNY     90  61  37 MISG      29.81F HX  89
LE MARS *      SUNNY     91  48  22 NW6G15    29.80S HX  88
ORANGE CITY *  SUNNY     88  54  31 NW10      29.81S HX  86
SHELDON *      SUNNY     88  54  31 W7G16     29.79S HX  86
SIOUX CITY     SUNNY     89  63  41 N5        29.80S HX  90
SPENCER        SUNNY     89  55  31 NW10      29.79S HX  87
STORM LAKE *   SUNNY     88  52  29 NW9G16    29.81S HX  85
$$

IAZ055>058-069>071-079>083-090>094-261700-
   SOUTHWEST IOWA

CITY           SKY/WX    TMP DP  RH WIND       PRES   REMARKS
ATLANTIC *     SUNNY     90  63  40 CALM      29.79S HX  90
AUDUBON *      SUNNY     90  61  37 CALM      29.81S HX  89
CLARINDA *     SUNNY     88  66  48 CALM      29.81S HX  90
COUNCIL BLFS * SUNNY     88  68  51 NE3       29.80S HX  91
CRESTON *      SUNNY     88  64  45 CALM      29.81S HX  89
HARLAN  *      SUNNY     90  61  37 CALM      29.83S HX  89
LAMONI         SUNNY     85  70  60 CALM      29.80S HX  89
RED OAK *      SUNNY     90  66  45 CALM      29.79S HX  92
SHENANDOAH *   SUNNY     90  64  43 VRB6      29.80S HX  91
$$

IAZ047>049-059>061-072>074-084-261700-
   CENTRAL IOWA

CITY           SKY/WX    TMP DP  RH WIND       PRES   REMARKS
AMES           SUNNY     83  70  64 CALM      29.78S HX  87
ANKENY *       SUNNY     84  68  58 CALM      29.78S HX  87
BOONE *        SUNNY     88  64  45 CALM      29.78S HX  89
CHARITON *     SUNNY     82  70  65 CALM      29.79S HX  86
DES MOINES     SUNNY     84  70  62 CALM      29.77S HX  88
GRINNELL*      SUNNY     83  68  60 SW3       29.79S HX  86
KNOXVILLE *    SUNNY     82  68  61 S7        29.77S HX  85
MARSHALLTOWN   SUNNY     84  71  65 W7        29.77S HX  89
NEWTON *       SUNNY     84  70  61 VRB3      29.78S HX  88
PELLA *        SUNNY     83  69  62 CALM      29.79S HX  86
PERRY *        FAIR      86  56  36 N3        29.79S HX  85
$$

IAZ004>006-015-016-023>025-035-036-261700-
   NORTH CENTRAL IOWA

CITY           SKY/WX    TMP DP  RH WIND       PRES   REMARKS
ALGONA *       SUNNY     86  63  45 NW9       29.78S HX  87
CLARION *      SUNNY     88  59  37 W10       29.78S HX  87
ESTHERVILLE    SUNNY     86  60  41 NW9       29.78S HX  86
FORT DODGE *   SUNNY     88  63  43 W6        29.79S HX  89
MASON CITY     SUNNY     84  69  60 SW5       29.78S HX  88
FOREST CITY *  FAIR      86  64  48 NW5       29.78S HX  87
WEBSTER CITY * SUNNY     88  59  37 CALM      29.76S HX  87
IOWA FALLS *   FAIR      84  69  60 SW3       29.79S HX  88
$$

IAZ007>011-017>019-026>030-037>042-050>054-066-261700-
   NORTHEAST IOWA

CITY           SKY/WX    TMP DP  RH WIND       PRES   REMARKS
CEDAR RAPIDS   FAIR      80  70  71 VRB3      29.78S HX  83
CHARLES CITY * FAIR      79  68  69 SW5       29.79S HX  81
CLINTON *        N/A     79  67  66 SW5       29.81S HX  81
DECORAH *      FAIR      77  70  78 CALM      29.77F
DUBUQUE        FAIR      77  68  73 SW6       29.81S
MONTICELLO *   FAIR      81  70  69 SW6       29.79S HX  84
OELWEIN *      FAIR      79  70  73 VRB3      29.80S HX  81
WATERLOO       FAIR      82  70  66 CALM      29.77S HX  86
$$

IAZ064-065-067-068-078-261700-
   EAST CENTRAL IOWA

CITY           SKY/WX    TMP DP  RH WIND       PRES   REMARKS
DAVENPORT      FAIR      80  66  62 VRB3      29.81F HX  82
IOWA CITY      FAIR      81  69  67 MISG      29.80S HX  84
MUSCATINE *    FAIR      82  70  65 SW8       29.79S HX  86
QUAD CITIES    FAIR      82  67  60 SW6       29.78F HX  84
$$

IAZ062-063-075>077-085>089-095>099-261700-
   SOUTHEAST IOWA

CITY           SKY/WX    TMP DP  RH WIND       PRES   REMARKS
BURLINGTON     SUNNY     82  71  69 SW13      29.78F HX  86
FAIRFIELD *    SUNNY     81  72  74 SW8       29.79S HX  84
FORT MADISON * SUNNY     82  73  74 SW10      29.79F HX  88
KEOKUK *       SUNNY     84  70  61 SW13      29.78F HX  88
OSKALOOSA *    FAIR      82  70  65 SW7       29.79S HX  86
CENTERVILLE *    N/A     84  72  65 CALM      29.81F HX  89
OTTUMWA        SUNNY     82  71  69 VRB7      29.79R HX  86
WASHINGTON *   SUNNY     81  73  78 W9        29.80R HX  85
$$

ABBREVIATIONS USED IN REMARKS
   TC - TEMPERATURES IN CELSIUS
  WCI - WIND CHILL INDEX
   HX - HEAT INDEX
  VSB - VISIBILITY
$$




USA.gov is the U.S. government's official web portal to all federal, state and local government web resources and services.